Location: Unspecified
(42.9300°N, 71.1866°W)
Time: 14:36:05
(UTC-05:00)

Cosmos 2058 - Visible Passes

Search period start: 17 January 2018 00:00
Search period end: 27 January 2018 00:00
Orbit: 564 x 584 km, 82.5° (Epoch: 17 January)

Date Brightness Start Highest point End Pass type
(mag) Time Alt. Az. Time Alt. Az. Time Alt. Az.
17 Jan 3.8 05:52:21 10° N 05:56:29 52° E 06:00:35 10° SSE visible
17 Jan 5.2 18:17:44 10° SE 18:17:55 11° SE 18:17:55 11° SE visible
18 Jan 3.2 05:55:31 10° N 05:59:44 71° E 06:03:55 10° SSE visible
18 Jan 4.3 18:20:35 10° SSE 18:22:32 23° SE 18:22:32 23° SE visible
18 Jan 5.9 19:58:18 10° WSW 19:58:51 12° WSW 19:58:51 12° WSW visible
19 Jan 2.9 05:58:44 10° N 06:02:58 86° W 06:07:10 10° S visible
19 Jan 3.2 18:23:33 10° SSE 18:27:12 44° ESE 18:27:12 44° ESE visible
19 Jan 5.9 20:02:13 10° WSW 20:03:30 14° W 20:03:30 14° W visible
20 Jan 6.1 04:27:23 10° NE 04:28:47 11° ENE 04:30:11 10° E visible
20 Jan 2.9 06:02:00 10° NNW 06:06:11 64° W 06:10:19 10° S visible
20 Jan 2.8 18:26:36 10° S 18:30:41 61° E 18:31:52 42° NE visible
20 Jan 6.1 20:06:30 10° W 20:08:04 12° WNW 20:08:11 12° WNW visible
21 Jan 5.9 04:29:43 10° NE 04:32:10 15° ENE 04:34:34 10° ESE visible
21 Jan 3.2 06:05:19 10° NNW 06:09:22 47° W 06:13:24 10° SSW visible
21 Jan 2.8 18:29:44 10° S 18:33:54 82° E 18:36:32 22° N visible
22 Jan 5.6 04:32:27 10° NNE 04:35:30 19° ENE 04:38:31 10° ESE visible
22 Jan 3.5 06:08:42 10° NNW 06:12:33 35° W 06:16:22 10° SSW visible
22 Jan 3.0 18:32:58 10° SSW 18:37:08 75° W 18:41:09 11° N visible
23 Jan 5.2 04:35:21 10° NNE 04:38:49 24° ENE 04:42:16 10° SE visible
23 Jan 3.9 06:12:09 10° NNW 06:15:43 27° W 06:19:14 10° SSW visible
23 Jan 3.6 18:36:17 10° SSW 18:40:22 55° W 18:44:32 10° N visible
24 Jan 4.7 04:38:20 10° NNE 04:42:08 31° ENE 04:45:53 10° SE visible
24 Jan 4.2 06:15:41 10° NW 06:18:50 21° W 06:21:58 10° SW visible
24 Jan 4.2 18:39:41 10° SSW 18:43:38 41° WNW 18:47:39 10° N visible
25 Jan 4.1 04:42:28 17° NNE 04:45:25 41° ENE 04:49:22 10° SSE visible
25 Jan 4.5 06:19:24 10° NW 06:21:57 16° W 06:24:30 10° WSW visible
25 Jan 4.8 18:43:10 10° SW 18:46:55 31° WNW 18:50:43 10° NNW visible
26 Jan 3.5 04:46:51 30° NNE 04:48:40 55° E 04:52:46 10° SSE visible
26 Jan 4.8 06:23:25 10° WNW 06:25:04 12° W 06:26:41 10° WSW visible
26 Jan 5.2 18:46:47 10° SW 18:50:13 24° WNW 18:53:42 10° NNW visible
